Location: Hall+in+Tirol
(47.2830°N, 11.5170°E)
Time: 10:44:27
(UTC+02:00)

Gurwin Techsat 1B - Visible Passes

Search period start: 25 October 2014 00:00
Search period end: 03 November 2014 23:00
Orbit: 813 x 814 km, 98.5° (Epoch: 24 October)

Date Brightness Start Highest point End Pass type
(mag) Time Alt. Az. Time Alt. Az. Time Alt. Az.
25 Oct 11.0 03:41:25 10° NNE 03:42:49 18° NNE 03:42:49 18° NNE visible
25 Oct 10.2 05:21:48 10° N 05:24:02 21° NNW 05:24:02 21° NNW visible
26 Oct 11.4 02:19:04 10° NNE 02:19:45 13° NE 02:19:45 13° NE visible
26 Oct 10.2 03:58:49 10° N 04:00:57 23° N 04:00:57 23° N visible
27 Oct 10.4 03:35:59 10° N 03:37:53 23° N 03:37:53 23° N visible
27 Oct 10.6 05:18:29 10° NNW 05:19:06 11° NW 05:19:06 11° NW visible
28 Oct 10.7 03:13:16 10° NNE 03:14:49 20° NNE 03:14:49 20° NNE visible
28 Oct 10.5 04:54:36 10° NNW 04:56:02 14° NNW 04:56:02 14° NNW visible
29 Oct 11.1 02:50:41 10° NNE 02:51:45 16° NNE 02:51:45 16° NNE visible
29 Oct 10.4 04:31:19 10° N 04:32:58 17° NNW 04:32:58 17° NNW visible
30 Oct 11.4 02:28:15 10° NNE 02:28:41 12° NNE 02:28:41 12° NNE visible
30 Oct 10.5 04:08:16 10° N 04:09:54 19° N 04:09:54 19° N visible
31 Oct 10.6 03:45:23 10° N 03:46:50 19° N 03:46:50 19° N visible
01 Nov 10.8 03:22:36 10° NNE 03:23:45 17° NNE 03:23:45 17° NNE visible
01 Nov 10.7 05:04:19 10° NNW 05:04:58 12° NNW 05:04:58 12° NNW visible
02 Nov 11.1 02:59:57 10° NNE 03:00:41 14° NNE 03:00:41 14° NNE visible
02 Nov 10.6 04:40:52 10° NNW 04:41:54 14° NNW 04:41:54 14° NNW visible
03 Nov 11.5 02:37:27 10° NNE 02:37:37 11° NNE 02:37:37 11° NNE visible
03 Nov 10.7 04:17:44 10° N 04:18:50 15° N 04:18:50 15° N visible
